Weather History for Fort Wayne, IN

Change the Weather History Date:

Saturday, August 18, 2012

  Actual Average Record
Temperature  
Mean Temperature 62 °F 72 °F  
Max Temperature 76 °F 82 °F 95 °F (1947)
Min Temperature 48 °F 61 °F 46 °F (1963)
Degree Days  
Heating Degree Days 3 0  
Month to date heating degree days 5 0  
Since 1 June heating degree days 31 32  
Since 1 July heating degree days 5 3  
Cooling Degree Days 0 7  
Month to date cooling degree days 105 131  
Year to date cooling degree days 956 637  
Since 1 June cooling degree days 803 580  
Growing Degree Days 12 (Base 50)    
Moisture  
Dew Point 51 °F    
Average Humidity 71    
Maximum Humidity 100    
Minimum Humidity 41    
Precipitation  
Precipitation T in 0.12 in 2.30 in (1910)
Month to date precipitation 2.61 2.18  
Year to date precipitation 17.96 25.38  
Snow  
Snow 0.00 in 0.00 in 0.00 in (2002)
Month to date snowfall 0.0 0.0  
Since 1 June snowfall 0.0  
Since 1 July snowfall 0.0 0.0  
Snow Depth 0.00 in    
Sea Level Pressure  
Sea Level Pressure 30.00 in    
Wind  
Wind Speed 2 mph (ENE)    
Max Wind Speed 9 mph    
Max Gust Speed 12 mph    
Visibility 10 miles    
Events      
T = Trace of Precipitation, MM = Missing Value Source: NWS Daily Summary

Daily Weather History Graph

Daily Weather History Graph

Search for Another Location

Airport:

Trip Planner

Search our weather history database for the weather conditions in past years. The results will help you decide how hot, cold, wet, or windy it might be!

Date:

Astronomy

Aug. 18, 2012 Rise Set
Actual Time 6:54 AM EDT 8:34 PM EDT
Civil Twilight 6:24 AM EDT 9:03 PM EDT
Nautical Twilight 5:49 AM EDT 9:38 PM EDT
Astronomical Twilight 5:11 AM EDT 10:16 PM EDT
Moon 8:02 AM EDT (8/18) 8:48 PM EDT (8/18)
Length of Visible Light 14h 38m
Length of Day
13h 40m
New Moon, 1% of the Moon is Illuminated
Aug 18
New Moon
Aug 24
First Quarter
Aug 31
Full
Sep 8
Last Quarter
Sep 15
New

Hourly Weather History & Observations

Time (EDT) Temp. Dew Point Humidity Pressure Visibility Wind Dir Wind Speed Gust Speed Precip Events Conditions
12:54 AM 53.1 °F 50.0 °F 89% 30.02 in 10.0 mi Calm Calm - N/A   Partly Cloudy
1:54 AM 53.1 °F 50.0 °F 89% 30.02 in 10.0 mi Calm Calm - N/A   Partly Cloudy
2:54 AM 52.0 °F 50.0 °F 93% 30.02 in 10.0 mi NNW 5.8 mph - N/A   Partly Cloudy
3:54 AM 53.1 °F 50.0 °F 89% 30.02 in 10.0 mi Calm Calm - N/A   Partly Cloudy
4:54 AM 50.0 °F 48.9 °F 96% 30.02 in 10.0 mi Calm Calm - N/A   Scattered Clouds
5:54 AM 50.0 °F 48.0 °F 93% 30.03 in 10.0 mi Calm Calm - N/A   Scattered Clouds
6:54 AM 48.9 °F 48.0 °F 97% 30.04 in 10.0 mi Calm Calm - N/A   Partly Cloudy
7:54 AM 51.8 °F 50.0 °F 94% 30.04 in 10.0 mi NNW 3.5 mph - N/A   Scattered Clouds
8:54 AM 60.1 °F 54.0 °F 80% 30.04 in 10.0 mi NE 5.8 mph - N/A   Partly Cloudy
9:54 AM 63.0 °F 52.0 °F 67% 30.04 in 10.0 mi East 5.8 mph - N/A   Partly Cloudy
10:54 AM 66.0 °F 53.1 °F 63% 30.05 in 10.0 mi ENE 6.9 mph - N/A   Partly Cloudy
11:54 AM 68.0 °F 53.1 °F 59% 30.04 in 10.0 mi East 4.6 mph - N/A   Scattered Clouds
12:54 PM 69.1 °F 52.0 °F 54% 30.03 in 10.0 mi Calm Calm - N/A   Scattered Clouds
1:54 PM 71.1 °F 51.1 °F 49% 30.01 in 10.0 mi Variable 3.5 mph - N/A   Scattered Clouds
2:54 PM 73.0 °F 52.0 °F 48% 30.00 in 10.0 mi ESE 4.6 mph - N/A   Mostly Cloudy
3:54 PM 73.9 °F 48.9 °F 41% 29.97 in 10.0 mi Calm Calm - N/A   Mostly Cloudy
4:54 PM 73.0 °F 51.1 °F 46% 29.97 in 10.0 mi SSE 4.6 mph - N/A   Scattered Clouds
5:54 PM 73.9 °F 48.9 °F 41% 29.96 in 10.0 mi Calm Calm - 0.00 in   Scattered Clouds
6:54 PM 73.0 °F 48.9 °F 42% 29.94 in 10.0 mi Calm Calm - N/A   Scattered Clouds
7:54 PM 70.0 °F 54.0 °F 57% 29.96 in 10.0 mi SSW 3.5 mph - N/A   Scattered Clouds
8:54 PM 64.9 °F 53.1 °F 65% 29.96 in 10.0 mi Calm Calm - N/A   Scattered Clouds
9:54 PM 60.1 °F 53.1 °F 78% 29.97 in 10.0 mi Calm Calm - N/A   Scattered Clouds
10:54 PM 61.0 °F 54.0 °F 78% 29.96 in 10.0 mi Calm Calm - N/A   Scattered Clouds
11:54 PM 57.9 °F 53.1 °F 84% 29.97 in 10.0 mi Calm Calm - N/A   Scattered Clouds